QPF
0.00 0.00 0.00 0.00 0.00 0.01 0.02 0.02 0.01 0.01 0.01 0.01 0.01 0.02 0.03 0.02 0.02 0.02 0.02 0.02 0.01 0.01 0.01 0.02 0.03 0.03 0.04 0.05 0.06 0.06 0.05 0.04 0.03 0.03 0.03 0.03 0.03 0.02 0.02 0.02 0.01 0.01 0.01
0.00 0.01 0.00 0.00 0.00 0.00 0.01 0.01 0.02 0.01 0.01 0.00 0.01 0.02 0.02 0.01 0.01 0.01 0.02 0.02 0.02 0.01 0.01 0.01 0.02 0.02 0.03 0.04 0.05 0.06 0.07 0.06 0.05 0.05 0.06 0.05 0.04 0.02 0.01 0.01 0.00 0.01 0.01
0.00 0.00 0.00 0.00 0.00 0.00 0.00 0.01 0.01 0.01 0.01 0.01 0.02 0.02 0.02 0.02 0.02 0.02 0.02 0.02 0.02 0.02 0.01 0.00 0.01 0.01 0.02 0.03 0.03 0.03 0.04 0.05 0.06 0.06 0.07 0.07 0.05 0.03 0.02 0.01 0.01 0.00 0.01
0.00 0.02 0.01 0.00 0.00 0.00 0.00 0.00 0.01 0.01 0.01 0.01 0.01 0.02 0.03 0.04 0.03 0.02 0.02 0.02 0.02 0.02 0.01 0.01 0.01 0.02 0.01 0.01 0.01 0.02 0.03 0.04 0.06 0.07 0.06 0.05 0.05 0.04 0.02 0.02 0.02 0.01 0.00
0.00 0.02 0.01 0.00 0.00 0.00 0.00 0.00 0.01 0.01 0.01 0.01 0.01 0.02 0.02 0.04 0.04 0.03 0.03 0.03 0.02 0.03 0.02 0.01 0.01 0.02 0.02 0.01 0.02 0.03 0.04 0.04 0.05 0.06 0.06 0.06 0.05 0.04 0.04 0.03 0.02 0.02 0.01
0.00 0.01 0.00 0.00 0.00 0.01 0.01 0.01 0.01 0.01 0.01 0.02 0.01 0.01 0.02 0.02 0.03 0.04 0.04 0.03 0.03 0.03 0.02 0.02 0.02 0.02 0.02 0.01 0.01 0.02 0.03 0.04 0.04 0.05 0.06 0.06 0.05 0.05 0.05 0.04 0.03 0.03 0.02
0.00 0.01 0.01 0.01 0.01 0.00 0.00 0.01 0.01 0.02 0.02 0.02 0.02 0.01 0.02 0.02 0.03 0.04 0.04 0.04 0.03 0.03 0.03 0.02 0.02 0.01 0.02 0.01 0.01 0.01 0.03 0.04 0.03 0.04 0.04 0.04 0.03 0.04 0.06 0.06 0.05 0.04 0.03
0.00 0.00 0.00 0.00 0.00 0.00 0.01 0.01 0.01 0.03 0.03 0.02 0.01 0.02 0.02 0.02 0.03 0.04 0.04 0.03 0.03 0.04 0.04 0.02 0.02 0.01 0.01 0.01 0.01 0.01 0.01 0.02 0.03 0.02 0.02 0.02 0.02 0.02 0.03 0.04 0.05 0.05 0.03
0.01 0.00 0.00 0.00 0.01 0.01 0.01 0.01 0.02 0.05 0.04 0.02 0.01 0.01 0.02 0.02 0.02 0.02 0.03 0.03 0.03 0.03 0.04 0.03 0.03 0.02 0.01 0.01 0.01 0.01 0.01 0.02 0.02 0.02 0.02 0.02 0.02 0.03 0.03 0.03 0.03 0.04 0.04
0.00 0.00 0.00 0.00 0.01 0.01 0.01 0.01 0.02 0.03 0.05 0.05 0.02 0.01 0.02 0.02 0.02 0.02 0.02 0.03 0.02 0.02 0.02 0.02 0.02 0.02 0.02 0.02 0.02 0.02 0.02 0.01 0.02 0.02 0.02 0.02 0.02 0.03 0.03 0.04 0.03 0.04 0.04
0.00 0.00 0.00 0.00 0.00 0.01 0.01 0.01 0.01 0.03 0.03 0.03 0.02 0.02 0.02 0.02 0.03 0.02 0.02 0.02 0.03 0.02 0.02 0.02 0.02 0.02 0.03 0.03 0.03 0.02 0.01 0.01 0.02 0.02 0.02 0.01 0.02 0.02 0.03 0.03 0.03 0.04 0.05
0.01 0.00 0.01 0.01 0.01 0.00 0.01 0.01 0.01 0.02 0.03 0.02 0.01 0.02 0.04 0.03 0.03 0.03 0.02 0.02 0.02 0.02 0.02 0.03 0.04 0.03 0.02 0.04 0.04 0.03 0.03 0.03 0.03 0.03 0.02 0.02 0.02 0.01 0.02 0.02 0.02 0.03 0.04
0.01 0.01 0.01 0.01 0.01 0.00 0.01 0.01 0.01 0.01 0.02 0.02 0.01 0.01 0.04 0.04 0.04 0.03 0.02 0.02 0.02 0.02 0.03 0.02 0.03 0.03 0.03 0.03 0.05 0.05 0.05 0.04 0.04 0.04 0.03 0.02 0.02 0.01 0.02 0.02 0.03 0.03 0.03
0.01 0.01 0.01 0.01 0.01 0.01 0.01 0.01 0.01 0.01 0.02 0.02 0.02 0.02 0.03 0.04 0.04 0.03 0.03 0.04 0.02 0.02 0.02 0.02 0.02 0.03 0.03 0.04 0.05 0.06 0.05 0.05 0.04 0.05 0.04 0.03 0.02 0.01 0.03 0.02 0.02 0.02 0.03
0.00 0.01 0.01 0.01 0.01 0.01 0.01 0.01 0.01 0.01 0.02 0.02 0.02 0.03 0.03 0.03 0.03 0.02 0.01 0.02 0.03 0.02 0.02 0.02 0.02 0.03 0.03 0.03 0.03 0.04 0.04 0.05 0.06 0.07 0.05 0.03 0.02 0.02 0.03 0.02 0.02 0.02 0.03
0.00 0.00 0.01 0.01 0.02 0.01 0.01 0.01 0.01 0.01 0.01 0.02 0.02 0.02 0.03 0.03 0.03 0.01 0.01 0.01 0.02 0.02 0.02 0.02 0.02 0.02 0.02 0.03 0.02 0.02 0.03 0.04 0.06 0.06 0.05 0.03 0.02 0.03 0.03 0.03 0.03 0.04 0.03
0.00 0.00 0.01 0.01 0.01 0.01 0.02 0.02 0.01 0.01 0.01 0.01 0.02 0.03 0.03 0.03 0.03 0.02 0.01 0.01 0.02 0.02 0.02 0.01 0.02 0.02 0.02 0.02 0.02 0.01 0.02 0.03 0.04 0.04 0.05 0.04 0.02 0.02 0.02 0.02 0.03 0.04 0.04
0.00 0.00 0.01 0.01 0.01 0.02 0.02 0.02 0.01 0.01 0.01 0.01 0.01 0.02 0.03 0.03 0.03 0.03 0.02 0.02 0.02 0.02 0.02 0.02 0.02 0.02 0.02 0.02 0.01 0.02 0.02 0.03 0.04 0.04 0.05 0.05 0.03 0.03 0.04 0.03 0.02 0.02 0.03
0.00 0.00 0.01 0.01 0.01 0.01 0.01 0.01 0.02 0.02 0.02 0.02 0.03 0.02 0.02 0.02 0.04 0.03 0.02 0.02 0.03 0.02 0.02 0.02 0.01 0.01 0.02 0.01 0.01 0.01 0.02 0.03 0.04 0.05 0.06 0.06 0.05 0.05 0.07 0.05 0.03 0.03 0.03
0.00 0.00 0.00 0.01 0.01 0.01 0.01 0.01 0.02 0.02 0.03 0.05 0.04 0.04 0.03 0.02 0.03 0.03 0.02 0.02 0.03 0.04 0.03 0.02 0.01 0.02 0.02 0.02 0.01 0.00 0.01 0.02 0.04 0.04 0.04 0.04 0.03 0.03 0.04 0.04 0.04 0.03 0.02
0.00 0.00 0.01 0.01 0.01 0.01 0.01 0.01 0.02 0.03 0.05 0.07 0.06 0.04 0.04 0.03 0.03 0.03 0.03 0.02 0.03 0.03 0.03 0.03 0.02 0.03 0.03 0.03 0.01 0.00 0.01 0.02 0.02 0.01 0.02 0.03 0.03 0.02 0.02 0.02 0.02 0.03 0.03
0.00 0.00 0.01 0.01 0.01 0.01 0.01 0.01 0.02 0.02 0.03 0.05 0.06 0.04 0.04 0.04 0.05 0.04 0.04 0.04 0.04 0.04 0.04 0.03 0.03 0.03 0.02 0.03 0.02 0.01 0.01 0.01 0.01 0.01 0.01 0.02 0.03 0.02 0.03 0.03 0.02 0.02 0.03
0.00 0.00 0.01 0.01 0.01 0.01 0.01 0.01 0.01 0.02 0.03 0.06 0.06 0.04 0.04 0.03 0.04 0.05 0.05 0.05 0.06 0.05 0.05 0.05 0.04 0.03 0.02 0.02 0.01 0.01 0.01 0.01 0.01 0.02 0.03 0.03 0.03 0.02 0.02 0.02 0.02 0.02 0.03
0.00 0.01 0.01 0.00 0.00 0.00 0.01 0.00 0.01 0.01 0.02 0.05 0.06 0.04 0.04 0.03 0.03 0.04 0.05 0.06 0.07 0.07 0.06 0.06 0.04 0.03 0.03 0.02 0.01 0.01 0.01 0.01 0.01 0.01 0.01 0.02 0.02 0.02 0.01 0.01 0.01 0.02 0.03
0.00 0.01 0.01 0.01 0.00 0.00 0.00 0.00 0.00 0.01 0.01 0.03 0.06 0.04 0.03 0.03 0.02 0.02 0.03 0.05 0.06 0.06 0.06 0.05 0.04 0.04 0.03 0.02 0.01 0.00 0.00 0.01 0.01 0.01 0.01 0.00 0.01 0.01 0.01 0.01 0.01 0.01 0.01
0.00 0.01 0.01 0.01 0.00 0.00 0.00 0.00 0.00 0.00 0.01 0.01 0.04 0.04 0.03 0.02 0.02 0.02 0.01 0.02 0.03 0.04 0.06 0.06 0.05 0.03 0.03 0.02 0.01 0.01 0.01 0.01 0.01 0.01 0.01 0.01 0.00 0.01 0.01 0.01 0.01 0.01 0.01
MSLP
1006.69 1007.38 1008.02 1008.57 1009.03 1009.43 1009.81 1010.21 1010.66 1011.15 1011.66 1012.14 1012.56 1012.86 1013.06 1013.16 1013.22 1013.30 1013.46 1013.75 1014.20 1014.79 1015.49 1016.25 1017.00 1017.70 1018.32 1018.85 1019.30 1019.72 1020.15 1020.62 1021.13 1021.70 1022.29 1022.87 1023.39 1023.81 1024.13 1024.32 1024.42 1024.45 1024.44
1006.01 1006.82 1007.56 1008.19 1008.70 1009.13 1009.51 1009.91 1010.37 1010.87 1011.42 1011.95 1012.43 1012.80 1013.05 1013.19 1013.27 1013.36 1013.51 1013.79 1014.23 1014.82 1015.53 1016.30 1017.08 1017.80 1018.42 1018.95 1019.39 1019.79 1020.19 1020.64 1021.15 1021.72 1022.34 1022.96 1023.54 1024.05 1024.44 1024.71 1024.88 1024.97 1025.00
1005.37 1006.29 1007.14 1007.84 1008.40 1008.85 1009.23 1009.62 1010.07 1010.58 1011.14 1011.72 1012.25 1012.68 1013.00 1013.20 1013.32 1013.42 1013.59 1013.86 1014.29 1014.87 1015.57 1016.35 1017.12 1017.83 1018.45 1018.96 1019.38 1019.74 1020.11 1020.52 1021.00 1021.57 1022.21 1022.87 1023.51 1024.09 1024.57 1024.93 1025.19 1025.36 1025.47
1004.80 1005.81 1006.75 1007.53 1008.13 1008.60 1008.98 1009.35 1009.77 1010.27 1010.84 1011.44 1012.02 1012.51 1012.89 1013.14 1013.31 1013.45 1013.63 1013.92 1014.34 1014.91 1015.60 1016.36 1017.12 1017.82 1018.42 1018.91 1019.30 1019.63 1019.95 1020.32 1020.78 1021.32 1021.95 1022.63 1023.32 1023.96 1024.52 1024.97 1025.33 1025.59 1025.78
1004.30 1005.39 1006.40 1007.25 1007.89 1008.38 1008.75 1009.10 1009.50 1009.98 1010.54 1011.15 1011.75 1012.28 1012.71 1013.02 1013.23 1013.41 1013.61 1013.90 1014.32 1014.88 1015.56 1016.31 1017.07 1017.76 1018.36 1018.83 1019.20 1019.50 1019.79 1020.12 1020.53 1021.04 1021.64 1022.31 1023.01 1023.69 1024.30 1024.84 1025.27 1025.63 1025.91
1003.87 1005.03 1006.10 1007.00 1007.69 1008.19 1008.56 1008.90 1009.27 1009.72 1010.26 1010.86 1011.46 1012.01 1012.47 1012.81 1013.06 1013.27 1013.49 1013.79 1014.22 1014.78 1015.45 1016.20 1016.96 1017.67 1018.27 1018.76 1019.13 1019.42 1019.68 1019.97 1020.33 1020.78 1021.34 1021.97 1022.64 1023.32 1023.96 1024.54 1025.04 1025.47 1025.83
1003.53 1004.72 1005.84 1006.78 1007.50 1008.03 1008.41 1008.74 1009.09 1009.52 1010.03 1010.60 1011.18 1011.73 1012.19 1012.55 1012.82 1013.04 1013.27 1013.58 1014.01 1014.57 1015.25 1016.02 1016.81 1017.54 1018.18 1018.70 1019.10 1019.40 1019.65 1019.90 1020.21 1020.61 1021.09 1021.65 1022.27 1022.90 1023.53 1024.12 1024.65 1025.13 1025.56
1003.27 1004.48 1005.62 1006.59 1007.35 1007.90 1008.30 1008.63 1008.97 1009.37 1009.85 1010.39 1010.95 1011.47 1011.91 1012.26 1012.52 1012.74 1012.97 1013.28 1013.71 1014.28 1014.98 1015.78 1016.60 1017.39 1018.09 1018.66 1019.11 1019.44 1019.70 1019.94 1020.21 1020.53 1020.93 1021.40 1021.93 1022.50 1023.07 1023.64 1024.17 1024.68 1025.15
1003.09 1004.29 1005.44 1006.43 1007.20 1007.78 1008.20 1008.55 1008.89 1009.28 1009.74 1010.25 1010.77 1011.26 1011.67 1011.99 1012.23 1012.43 1012.65 1012.95 1013.37 1013.95 1014.66 1015.49 1016.36 1017.21 1017.98 1018.63 1019.14 1019.53 1019.82 1020.05 1020.28 1020.54 1020.86 1021.23 1021.67 1022.14 1022.65 1023.16 1023.68 1024.18 1024.68
1002.97 1004.15 1005.28 1006.26 1007.05 1007.65 1008.09 1008.46 1008.82 1009.22 1009.67 1010.16 1010.66 1011.11 1011.49 1011.78 1011.99 1012.16 1012.36 1012.64 1013.05 1013.62 1014.34 1015.19 1016.10 1017.01 1017.84 1018.57 1019.15 1019.60 1019.93 1020.18 1020.39 1020.61 1020.85 1021.14 1021.48 1021.87 1022.30 1022.76 1023.24 1023.73 1024.24
1002.89 1004.03 1005.13 1006.08 1006.86 1007.46 1007.94 1008.34 1008.73 1009.15 1009.62 1010.12 1010.61 1011.05 1011.41 1011.67 1011.86 1012.01 1012.18 1012.43 1012.82 1013.37 1014.08 1014.92 1015.85 1016.79 1017.67 1018.45 1019.10 1019.61 1019.98 1020.26 1020.48 1020.67 1020.87 1021.11 1021.39 1021.71 1022.07 1022.48 1022.93 1023.40 1023.90
1002.82 1003.90 1004.94 1005.85 1006.61 1007.21 1007.71 1008.15 1008.58 1009.05 1009.56 1010.09 1010.60 1011.05 1011.42 1011.68 1011.86 1012.00 1012.15 1012.37 1012.73 1013.24 1013.91 1014.73 1015.63 1016.56 1017.46 1018.27 1018.95 1019.51 1019.93 1020.24 1020.48 1020.69 1020.88 1021.10 1021.35 1021.64 1021.97 1022.35 1022.77 1023.23 1023.72
1002.68 1003.71 1004.68 1005.54 1006.27 1006.87 1007.38 1007.87 1008.36 1008.89 1009.46 1010.04 1010.61 1011.11 1011.51 1011.81 1012.00 1012.15 1012.29 1012.49 1012.81 1013.26 1013.88 1014.63 1015.47 1016.36 1017.22 1018.02 1018.72 1019.29 1019.75 1020.10 1020.38 1020.63 1020.85 1021.09 1021.35 1021.65 1021.98 1022.35 1022.77 1023.22 1023.70
1002.44 1003.41 1004.33 1005.14 1005.84 1006.44 1006.97 1007.50 1008.06 1008.66 1009.31 1009.97 1010.61 1011.18 1011.65 1012.01 1012.26 1012.43 1012.59 1012.78 1013.05 1013.45 1013.98 1014.64 1015.40 1016.19 1016.99 1017.74 1018.41 1018.99 1019.47 1019.86 1020.20 1020.50 1020.78 1021.07 1021.38 1021.71 1022.08 1022.47 1022.89 1023.34 1023.81
1002.03 1002.97 1003.85 1004.64 1005.32 1005.93 1006.50 1007.07 1007.69 1008.37 1009.10 1009.85 1010.58 1011.24 1011.80 1012.24 1012.56 1012.80 1012.98 1013.18 1013.42 1013.76 1014.21 1014.77 1015.41 1016.10 1016.80 1017.47 1018.09 1018.65 1019.14 1019.57 1019.96 1020.33 1020.69 1021.05 1021.43 1021.82 1022.23 1022.66 1023.10 1023.55 1024.01
1001.44 1002.38 1003.26 1004.05 1004.75 1005.38 1005.99 1006.62 1007.30 1008.05 1008.85 1009.68 1010.50 1011.26 1011.91 1012.45 1012.86 1013.16 1013.40 1013.62 1013.85 1014.15 1014.52 1014.97 1015.50 1016.07 1016.67 1017.26 1017.82 1018.35 1018.85 1019.31 1019.75 1020.18 1020.62 1021.06 1021.51 1021.96 1022.43 1022.89 1023.35 1023.80 1024.25
1000.67 1001.66 1002.57 1003.40 1004.14 1004.82 1005.48 1006.16 1006.90 1007.71 1008.57 1009.47 1010.36 1011.19 1011.94 1012.57 1013.07 1013.46 1013.76 1014.02 1014.27 1014.53 1014.85 1015.22 1015.65 1016.12 1016.62 1017.14 1017.65 1018.15 1018.64 1019.13 1019.61 1020.11 1020.60 1021.11 1021.62 1022.13 1022.63 1023.12 1023.59 1024.04 1024.46
999.78 1000.84 1001.82 1002.72 1003.53 1004.28 1005.01 1005.74 1006.53 1007.37 1008.27 1009.21 1010.14 1011.03 1011.85 1012.56 1013.14 1013.62 1014.00 1014.31 1014.58 1014.85 1015.14 1015.46 1015.83 1016.23 1016.67 1017.12 1017.60 1018.08 1018.58 1019.09 1019.61 1020.14 1020.69 1021.24 1021.79 1022.33 1022.84 1023.33 1023.80 1024.23 1024.63
998.84 999.98 1001.06 1002.05 1002.95 1003.79 1004.58 1005.37 1006.18 1007.05 1007.96 1008.90 1009.86 1010.78 1011.64 1012.40 1013.06 1013.61 1014.06 1014.43 1014.75 1015.05 1015.34 1015.65 1015.99 1016.36 1016.77 1017.20 1017.67 1018.15 1018.66 1019.20 1019.74 1020.31 1020.87 1021.44 1022.00 1022.54 1023.05 1023.52 1023.96 1024.36 1024.73
997.93 999.15 1000.32 1001.41 1002.41 1003.32 1004.19 1005.02 1005.87 1006.74 1007.64 1008.58 1009.52 1010.44 1011.32 1012.12 1012.83 1013.44 1013.96 1014.39 1014.77 1015.10 1015.43 1015.75 1016.10 1016.48 1016.89 1017.33 1017.81 1018.32 1018.86 1019.41 1019.98 1020.56 1021.13 1021.70 1022.24 1022.75 1023.23 1023.67 1024.08 1024.44 1024.78
997.12 998.39 999.63 1000.80 1001.89 1002.89 1003.81 1004.69 1005.56 1006.43 1007.32 1008.23 1009.15 1010.07 1010.95 1011.77 1012.51 1013.17 1013.74 1014.23 1014.66 1015.04 1015.40 1015.76 1016.14 1016.55 1016.99 1017.47 1017.98 1018.53 1019.10 1019.68 1020.27 1020.85 1021.42 1021.96 1022.47 1022.94 1023.38 1023.78 1024.14 1024.47 1024.77
996.46 997.73 999.02 1000.25 1001.40 1002.46 1003.44 1004.36 1005.24 1006.11 1006.99 1007.88 1008.78 1009.68 1010.56 1011.39 1012.16 1012.85 1013.46 1014.00 1014.47 1014.89 1015.29 1015.69 1016.11 1016.55 1017.04 1017.56 1018.13 1018.72 1019.33 1019.94 1020.54 1021.12 1021.67 1022.18 1022.65 1023.08 1023.47 1023.82 1024.14 1024.44 1024.71
995.95 997.20 998.48 999.74 1000.93 1002.03 1003.05 1004.00 1004.91 1005.78 1006.66 1007.55 1008.44 1009.34 1010.22 1011.06 1011.85 1012.56 1013.20 1013.76 1014.27 1014.72 1015.15 1015.57 1016.02 1016.50 1017.03 1017.59 1018.20 1018.83 1019.48 1020.11 1020.73 1021.30 1021.83 1022.31 1022.74 1023.13 1023.47 1023.78 1024.07 1024.34 1024.60
995.60 996.79 998.04 999.28 1000.48 1001.61 1002.65 1003.63 1004.55 1005.45 1006.34 1007.24 1008.14 1009.05 1009.94 1010.80 1011.60 1012.34 1013.00 1013.58 1014.09 1014.56 1015.00 1015.44 1015.90 1016.41 1016.96 1017.56 1018.19 1018.86 1019.53 1020.18 1020.80 1021.37 1021.87 1022.32 1022.71 1023.05 1023.36 1023.64 1023.91 1024.16 1024.41
995.38 996.49 997.67 998.88 1000.06 1001.19 1002.25 1003.24 1004.19 1005.11 1006.03 1006.95 1007.87 1008.81 1009.72 1010.60 1011.43 1012.18 1012.86 1013.45 1013.97 1014.44 1014.88 1015.31 1015.78 1016.29 1016.84 1017.46 1018.11 1018.79 1019.47 1020.13 1020.74 1021.29 1021.77 1022.19 1022.54 1022.85 1023.12 1023.37 1023.62 1023.87 1024.11
995.25 996.26 997.38 998.54 999.69 1000.80 1001.86 1002.86 1003.83 1004.77 1005.71 1006.66 1007.62 1008.58 1009.52 1010.43 1011.28 1012.06 1012.75 1013.34 1013.87 1014.33 1014.76 1015.20 1015.65 1016.15 1016.71 1017.32 1017.97 1018.65 1019.32 1019.97 1020.56 1021.09 1021.54 1021.91 1022.23 1022.49 1022.73 1022.96 1023.19 1023.43 1023.67
Thickness
5749 5748 5747 5745 5743 5740 5737 5734 5731 5729 5726 5722 5719 5715 5714 5714 5714 5714 5713 5712 5711 5710 5709 5708 5706 5705 5702 5701 5700 5698 5697 5697 5698 5695 5693 5695 5697 5696 5696 5696 5695 5694 5693
5744 5742 5742 5740 5738 5735 5732 5730 5727 5725 5722 5719 5717 5715 5712 5711 5710 5710 5709 5708 5707 5706 5704 5703 5701 5699 5697 5696 5695 5693 5691 5691 5693 5689 5685 5681 5683 5687 5691 5690 5689 5688 5688
5741 5738 5737 5735 5733 5730 5729 5727 5724 5722 5720 5717 5714 5712 5709 5706 5704 5703 5703 5703 5702 5701 5700 5698 5697 5695 5693 5690 5690 5689 5688 5685 5686 5688 5683 5677 5672 5675 5680 5682 5683 5683 5682
5740 5735 5732 5730 5728 5727 5727 5725 5721 5719 5716 5714 5710 5705 5701 5698 5699 5699 5698 5698 5698 5696 5695 5694 5692 5691 5689 5687 5687 5687 5685 5683 5680 5682 5683 5682 5678 5671 5669 5673 5676 5677 5677
5738 5733 5730 5728 5726 5724 5722 5720 5717 5715 5712 5710 5706 5702 5698 5697 5696 5696 5694 5693 5692 5692 5691 5690 5688 5687 5685 5684 5684 5683 5681 5680 5678 5676 5676 5677 5676 5674 5668 5664 5666 5669 5671
5737 5732 5730 5727 5723 5720 5717 5715 5712 5709 5708 5706 5703 5699 5695 5693 5691 5689 5688 5687 5687 5687 5686 5686 5684 5683 5681 5680 5680 5679 5678 5676 5675 5674 5673 5671 5669 5667 5666 5662 5661 5660 5663
5733 5728 5724 5720 5716 5714 5711 5709 5707 5704 5703 5701 5698 5696 5693 5690 5687 5686 5684 5683 5682 5681 5681 5681 5680 5678 5678 5677 5676 5675 5674 5673 5671 5670 5669 5669 5668 5667 5665 5661 5657 5656 5657
5729 5725 5721 5717 5713 5710 5707 5704 5702 5699 5698 5696 5694 5692 5690 5687 5685 5683 5682 5680 5678 5678 5678 5677 5676 5675 5674 5673 5672 5670 5670 5669 5668 5667 5666 5665 5665 5664 5662 5658 5654 5650 5650
5725 5722 5718 5714 5710 5706 5703 5701 5698 5695 5693 5691 5689 5687 5685 5683 5681 5680 5679 5677 5677 5676 5675 5674 5672 5671 5670 5668 5667 5665 5665 5665 5664 5663 5662 5661 5661 5661 5660 5658 5654 5648 5642
5722 5719 5715 5711 5707 5703 5700 5697 5695 5691 5689 5687 5685 5683 5682 5680 5678 5676 5674 5673 5672 5672 5670 5669 5668 5666 5665 5664 5662 5661 5660 5659 5659 5658 5657 5657 5656 5656 5655 5654 5652 5649 5644
5717 5714 5711 5708 5704 5700 5696 5692 5690 5687 5684 5682 5680 5679 5677 5676 5674 5671 5670 5668 5667 5666 5665 5664 5663 5661 5660 5659 5657 5656 5655 5654 5653 5653 5652 5651 5652 5650 5650 5648 5647 5645 5642
5715 5711 5707 5702 5698 5694 5691 5687 5685 5682 5679 5678 5675 5674 5673 5671 5669 5667 5666 5665 5663 5661 5660 5659 5658 5657 5656 5655 5653 5651 5650 5649 5648 5648 5647 5647 5647 5645 5644 5643 5641 5639 5638
5709 5705 5700 5696 5693 5689 5686 5683 5680 5678 5675 5673 5671 5668 5667 5665 5663 5661 5660 5659 5657 5656 5655 5654 5653 5652 5651 5650 5649 5647 5646 5645 5644 5644 5643 5642 5641 5639 5638 5637 5636 5634 5634
5703 5698 5693 5691 5688 5685 5682 5679 5676 5674 5672 5669 5666 5663 5661 5659 5657 5656 5654 5653 5652 5650 5649 5648 5647 5647 5646 5645 5644 5642 5641 5640 5640 5639 5639 5638 5637 5635 5634 5632 5631 5629 5627
5697 5693 5689 5686 5683 5680 5678 5675 5672 5670 5668 5663 5660 5657 5656 5654 5651 5649 5647 5646 5645 5644 5643 5642 5642 5641 5640 5639 5638 5637 5636 5635 5635 5634 5634 5634 5633 5633 5631 5629 5626 5625 5621
5691 5689 5686 5683 5679 5676 5673 5670 5667 5665 5662 5658 5654 5652 5650 5647 5645 5643 5641 5640 5639 5638 5637 5636 5635 5634 5634 5633 5632 5632 5630 5630 5629 5628 5627 5628 5627 5627 5626 5625 5623 5621 5618
5685 5682 5680 5678 5675 5674 5670 5666 5663 5661 5657 5653 5649 5647 5645 5642 5639 5638 5635 5634 5633 5632 5631 5630 5629 5628 5627 5627 5627 5626 5625 5624 5623 5622 5621 5622 5622 5621 5619 5618 5617 5615 5614
5680 5677 5675 5673 5672 5670 5667 5663 5659 5655 5651 5647 5644 5641 5639 5637 5635 5633 5631 5629 5628 5627 5625 5624 5624 5623 5622 5622 5620 5619 5619 5618 5618 5617 5616 5615 5615 5614 5613 5612 5610 5608 5607
5675 5673 5671 5669 5667 5664 5661 5658 5653 5650 5646 5642 5639 5636 5634 5631 5630 5627 5626 5625 5623 5622 5621 5620 5619 5618 5616 5615 5614 5613 5611 5611 5611 5610 5609 5609 5608 5608 5607 5605 5603 5601 5601
5670 5668 5666 5664 5661 5659 5656 5651 5646 5643 5639 5637 5635 5632 5629 5627 5624 5623 5622 5621 5619 5618 5616 5615 5615 5613 5610 5609 5608 5606 5604 5603 5603 5603 5603 5602 5601 5601 5600 5598 5596 5594 5594
5663 5661 5659 5656 5653 5652 5649 5644 5641 5638 5636 5633 5631 5628 5625 5623 5620 5618 5617 5616 5615 5613 5611 5610 5609 5607 5605 5603 5601 5600 5598 5596 5596 5595 5595 5594 5594 5594 5593 5591 5590 5589 5589
5654 5653 5650 5648 5647 5645 5641 5637 5634 5633 5631 5628 5625 5622 5620 5618 5616 5613 5611 5610 5609 5606 5605 5603 5602 5600 5599 5597 5595 5594 5592 5591 5588 5588 5588 5587 5587 5586 5585 5584 5584 5583 5582
5646 5645 5643 5640 5639 5637 5634 5630 5629 5627 5625 5622 5619 5616 5615 5612 5610 5607 5605 5604 5602 5600 5598 5596 5593 5592 5592 5591 5589 5587 5586 5584 5582 5581 5581 5581 5580 5579 5578 5577 5576 5575 5572
5639 5637 5635 5632 5630 5629 5628 5625 5623 5622 5619 5615 5613 5611 5608 5606 5604 5601 5599 5597 5595 5593 5591 5589 5586 5585 5584 5583 5581 5579 5578 5576 5574 5573 5573 5573 5572 5570 5570 5569 5567 5566 5564
5631 5629 5627 5625 5623 5623 5621 5619 5617 5615 5612 5610 5607 5605 5602 5599 5596 5594 5592 5591 5589 5587 5585 5583 5581 5578 5576 5576 5575 5572 5571 5569 5567 5565 5564 5563 5562 5561 5560 5560 5559 5558 5557
5623 5621 5620 5618 5617 5616 5614 5612 5611 5609 5606 5603 5601 5599 5596 5593 5590 5588 5585 5584 5583 5582 5580 5578 5575 5573 5572 5570 5568 5567 5565 5563 5561 5558 5556 5555 5555 5553 5553 5552 5551 5550 5550